Location: Unspecified
(0.0000°N, 0.0000°E)
Time: 07:20:28
(UTC+00:00)

Envisat - Visible Passes

Search period start: 12 August 2020 00:00
Search period end: 22 August 2020 00:00
Orbit: 764 x 766 km, 98.1° (Epoch: 11 August)

Date Brightness Start Highest point End Pass type
(mag) Time Alt. Az. Time Alt. Az. Time Alt. Az.
12 Aug 5.2 18:29:02 10° SSW 18:33:19 28° WSW 18:37:36 10° NW visible
13 Aug 4.4 05:20:48 10° NNE 05:25:32 41° ESE 05:30:17 10° S visible
14 Aug 5.9 04:46:11 10° ENE 04:48:52 14° ESE 04:51:33 10° SE visible
14 Aug 6.0 18:56:19 10° SW 18:58:40 13° WSW 19:01:01 10° WNW visible
16 Aug 5.0 05:09:50 10° NE 05:14:13 30° ESE 05:18:37 10° SSE visible
17 Aug 6.3 04:37:22 10° E 04:37:34 10° ESE 04:37:46 10° ESE visible
17 Aug 5.8 18:43:56 10° SW 18:47:22 18° WSW 18:50:48 10° WNW visible
18 Aug 3.6 05:34:34 10° NNE 05:39:35 63° ESE 05:44:37 10° S visible
19 Aug 5.5 04:59:02 10° NE 05:02:54 22° ESE 05:06:47 10° SSE visible
20 Aug 5.5 18:31:57 10° SSW 18:36:03 25° WSW 18:40:08 10° NW visible
21 Aug 4.2 05:23:26 10° NNE 05:28:15 46° ESE 05:33:07 10° S visible
